Location: Newark
(45.6439°N, 0.5436°E)
Time: 18:06:17
(UTC+00:00)

N. Korean satellite - Pass Details

Date: 29 November 2019
Orbit: 456 x 506 km, 97.2° (Epoch: 07 December)

Event Time Altitude Azimuth Distance (km) Brightness Sun altitude
Rises 05:00:09 0° 27° (NNE) 2,590 10.5 -23.0°
Reaches altitude 10° 05:02:43 10° 46° (NE) 1,691 9.8 -22.5°
Maximum altitude 05:05:22 19° 93° (E) 1,218 9.5 -22.1°
Drops below altitude 10° 05:07:58 10° 140° (SE) 1,659 9.9 -21.6°
Sets 05:10:27 0° 158° (SSE) 2,521 10.6 -21.2°
